Theta_e
354 353 352 352 351 351 352 351 351 352 354 353 352 353 353 354 355 354 353 352 348 347 346 346 350 354 354 353 352 352 352 353 352 351 354 354 354 354 349 345 346 345 342 340 338 340 347 352 353 353 352 352 351 351 350 349 349 351 352 353 354 354 352 350 350 351 352 353 352 351 349 348 347 338
355 354 353 352 351 351 352 350 349 352 354 353 352 352 353 354 354 354 355 354 350 348 347 347 348 351 353 352 350 349 350 352 352 352 353 353 354 351 347 348 350 349 343 340 339 341 346 351 352 353 352 351 351 351 352 352 352 352 353 354 355 353 350 348 349 350 351 353 352 352 350 348 348 343
356 357 356 355 354 353 352 351 350 350 352 352 351 352 353 354 354 355 355 355 354 350 348 351 351 349 351 351 350 350 350 351 352 354 354 355 355 351 350 351 353 352 347 340 339 340 343 347 350 350 350 349 350 350 350 351 352 353 353 354 354 353 350 348 349 350 351 352 352 352 351 349 349 347
358 359 358 357 356 356 355 353 351 350 350 351 350 351 352 353 353 354 355 356 357 354 351 351 351 350 350 351 351 352 352 351 352 354 355 354 354 352 352 351 350 352 349 341 338 338 340 342 344 345 347 349 350 350 349 349 349 349 350 351 351 351 350 349 349 350 352 352 352 352 352 351 349 349
359 360 359 358 358 357 356 355 352 350 349 350 350 351 352 352 352 353 355 356 357 356 355 353 353 353 352 351 353 353 352 351 351 352 352 352 352 351 350 348 348 351 348 342 339 339 338 339 340 343 347 348 349 347 347 346 345 345 346 347 349 350 351 349 348 350 352 352 353 353 353 352 351 350
359 360 359 358 357 356 356 355 354 351 350 349 350 351 351 352 352 353 354 356 357 357 356 356 355 354 353 353 353 353 353 353 353 354 353 351 350 349 349 348 347 350 348 343 340 340 339 339 340 342 343 343 343 341 340 340 339 341 343 344 346 348 349 348 347 349 351 352 353 353 353 353 352 350
360 360 359 357 356 355 355 356 355 353 353 352 351 352 352 353 353 353 355 356 357 357 357 357 356 354 354 354 353 354 354 354 355 354 353 351 349 348 349 348 347 349 349 346 342 340 339 340 339 340 340 340 340 339 338 338 339 341 343 343 344 344 345 346 346 347 349 351 353 354 354 353 352 351
361 360 359 357 356 356 357 358 357 356 357 356 356 355 355 355 354 355 356 357 357 358 357 358 357 357 356 356 355 354 354 354 354 354 353 352 350 349 349 347 346 348 348 348 347 344 341 343 342 339 337 338 339 339 340 340 341 342 342 343 343 343 343 344 345 346 349 351 352 353 353 352 352 351
360 359 359 358 357 357 357 358 358 358 360 359 358 358 358 357 358 358 358 358 358 359 359 359 359 358 357 357 356 356 355 354 352 351 352 352 352 352 351 348 346 345 345 346 347 346 345 347 347 344 340 337 336 337 339 339 339 340 342 343 343 343 343 343 344 345 348 351 352 353 353 352 351 350
358 359 359 359 359 358 358 357 357 358 360 360 359 361 360 359 360 360 360 360 360 360 360 359 359 358 357 357 357 357 357 356 354 353 354 352 351 353 353 351 348 344 344 345 346 347 347 347 349 350 348 345 340 336 336 335 336 338 340 342 343 344 344 344 344 345 346 349 351 352 352 352 351 350
356 357 358 359 359 360 360 359 358 359 359 360 360 362 362 361 361 360 359 360 360 360 359 358 357 357 356 356 357 357 358 361 361 358 355 353 352 353 355 355 353 349 348 349 348 348 348 348 349 351 351 351 348 344 340 338 339 339 338 340 341 343 344 345 344 345 346 347 349 351 352 352 350 350
355 355 356 356 356 358 359 358 357 357 359 359 359 359 360 361 362 360 359 359 360 360 358 357 357 357 356 357 357 357 358 360 359 354 351 352 354 354 354 355 355 355 355 352 347 347 349 349 348 349 350 351 352 351 348 347 348 345 340 339 339 340 342 344 345 345 345 346 347 350 351 352 351 350
355 355 353 352 353 355 355 354 353 352 352 354 356 357 358 359 360 361 360 359 360 360 359 358 357 356 355 354 353 353 352 352 351 349 349 352 353 352 352 354 355 355 355 353 349 350 350 350 349 350 350 350 351 351 350 351 353 349 343 340 340 339 340 342 344 345 345 345 346 347 349 352 352 351
355 354 353 352 352 353 352 350 350 350 351 351 353 354 355 357 358 359 359 358 358 358 358 357 356 354 353 352 351 350 349 348 346 346 348 351 352 353 353 354 354 354 355 355 356 355 353 352 353 354 353 351 350 349 349 350 351 347 344 343 342 340 339 341 343 344 345 345 345 345 347 349 352 353
353 352 352 351 352 354 353 353 354 353 351 350 351 352 352 353 354 356 357 357 357 357 356 355 353 353 352 352 352 349 346 345 346 348 351 353 354 355 355 355 355 355 356 358 360 360 358 357 358 358 357 355 353 350 349 350 350 348 346 346 345 344 341 340 342 344 345 344 344 345 345 347 350 352
353 352 352 351 350 352 352 354 357 357 354 351 349 350 350 351 351 352 354 356 357 358 358 356 355 354 353 353 352 350 348 350 353 355 355 355 355 356 355 356 355 355 356 359 360 360 360 359 360 360 359 357 354 351 351 353 354 352 350 349 348 347 343 341 342 344 344 344 344 343 344 345 347 350
355 356 356 355 353 351 352 355 358 361 361 358 355 352 350 350 350 351 351 352 353 355 357 357 357 356 355 355 355 354 356 359 359 359 357 356 356 356 355 355 356 356 357 359 360 360 361 360 359 358 359 357 355 354 356 357 357 355 353 351 351 348 345 343 344 345 344 343 344 343 345 345 347 349
355 357 357 357 357 356 357 359 361 363 363 363 362 360 358 355 354 354 353 352 352 353 355 357 358 358 358 358 359 360 361 362 362 362 362 360 359 358 358 358 358 358 358 360 361 362 362 361 359 358 359 357 356 357 357 357 357 356 355 354 352 350 347 346 346 346 346 346 346 346 346 346 347 348
358 358 358 358 357 359 360 361 360 360 360 360 361 362 362 361 359 357 356 354 354 354 354 356 357 357 357 357 358 359 358 358 358 358 358 358 358 359 360 360 359 358 358 359 360 361 361 360 360 359 358 357 357 358 359 358 358 358 357 355 353 352 350 349 348 348 347 347 348 348 348 348 348 348
357 357 358 358 358 359 360 360 357 353 352 354 358 360 360 361 359 357 356 355 354 353 353 353 354 353 353 353 354 354 353 353 352 352 352 354 355 356 358 358 357 356 357 357 358 359 360 360 360 360 359 359 359 359 360 360 359 358 358 356 355 354 353 353 351 350 349 348 347 348 350 350 351 351
356 356 356 357 358 358 358 357 354 351 350 353 357 359 359 359 358 357 356 355 355 354 353 353 353 353 352 353 352 352 352 352 352 351 352 354 354 354 355 356 355 355 355 356 356 358 359 359 360 361 359 359 359 359 358 359 358 358 358 356 357 357 356 355 354 353 352 350 348 347 348 349 350 352
357 356 355 355 355 355 355 354 353 352 352 354 356 358 358 358 358 357 356 355 354 355 355 355 356 356 357 356 356 355 355 354 354 353 353 354 355 354 355 356 356 355 355 354 356 358 358 358 359 359 358 357 358 357 357 358 358 357 357 357 357 358 358 357 356 355 354 353 351 350 349 349 350 350
357 356 354 353 352 352 352 352 351 351 352 352 354 355 356 358 358 356 356 356 356 355 356 356 357 357 357 357 358 358 358 358 357 356 355 355 356 356 357 357 356 357 358 357 357 359 359 358 358 357 356 356 357 357 357 358 358 357 357 357 357 357 358 358 357 357 356 354 354 353 352 351 351 351
354 353 351 349 347 347 347 347 347 349 349 350 351 352 354 356 355 354 353 354 355 355 355 356 356 355 355 356 357 358 358 358 358 358 357 357 357 357 358 356 353 354 357 357 358 358 358 358 358 356 355 356 357 357 358 357 357 356 356 356 356 357 358 358 358 358 358 357 356 355 354 352 352 352
349 348 347 345 342 340 339 339 340 342 344 346 347 348 350 350 351 351 350 351 352 353 354 354 354 353 353 355 356 356 357 356 355 356 357 357 356 357 357 355 353 354 355 356 357 357 356 357 356 355 355 357 357 356 357 357 356 356 356 356 357 357 358 358 358 358 357 358 358 357 356 354 353 352
343 342 342 340 337 335 335 336 338 339 340 342 343 344 345 346 346 347 347 348 351 351 352 352 351 351 352 352 351 351 353 354 353 353 354 355 355 355 355 356 356 356 356 355 355 356 355 356 356 354 355 356 356 356 356 356 356 356 356 356 357 357 358 358 358 358 357 357 357 357 357 356 355 353
339 338 338 337 336 336 336 337 339 339 340 340 341 342 343 343 344 346 347 348 349 350 350 351 350 350 350 350 348 348 350 352 352 352 352 352 353 353 354 356 355 355 355 355 355 355 354 355 356 356 356 355 355 356 356 356 356 356 356 357 357 357 357 357 357 358 357 357 357 357 357 358 356 355
332 331 332 333 334 336 336 337 338 338 338 339 339 340 342 343 343 344 346 345 345 346 347 347 348 348 347 347 347 348 349 350 350 351 351 351 352 352 352 353 354 353 354 355 356 356 354 354 354 356 357 357 356 356 356 356 356 356 356 357 357 357 356 357 357 357 357 357 357 357 357 357 357 356
322 321 322 324 326 329 333 335 336 336 336 337 337 338 340 341 341 341 341 341 342 342 342 342 343 343 342 342 343 345 346 347 348 349 350 350 350 351 351 352 352 352 353 353 354 355 354 352 352 353 355 357 357 355 356 356 356 356 356 356 356 356 356 357 357 357 357 357 358 357 357 358 357 357
318 317 316 317 318 320 324 328 331 331 331 332 334 335 336 338 338 337 337 338 338 338 338 338 339 339 339 339 341 342 343 344 345 346 346 347 348 349 349 350 351 351 352 352 353 354 352 353 354 352 353 355 356 354 355 355 355 355 356 356 356 357 357 356 357 357 357 357 358 358 358 358 358 357
320 318 316 316 317 319 320 324 326 327 327 328 329 330 332 335 335 333 333 333 333 333 333 334 335 335 335 337 338 339 340 340 341 342 341 342 343 344 344 346 348 349 350 351 351 352 351 352 354 352 350 352 354 354 354 355 356 356 356 355 356 356 356 356 356 357 357 357 358 358 358 359 359 359
323 322 320 320 321 322 323 323 324 325 325 326 326 327 328 330 330 328 329 329 329 328 329 330 331 332 333 335 336 336 337 338 338 339 337 337 339 339 339 340 341 342 344 346 347 348 349 350 352 352 351 352 352 352 353 354 355 356 356 355 355 356 356 356 356 356 357 358 358 359 360 360 360 359
324 324 323 322 321 321 321 321 321 322 322 323 325 324 324 325 325 324 325 325 324 325 327 328 328 330 331 333 333 333 334 334 334 334 334 334 335 336 336 337 336 336 339 339 339 340 344 346 347 348 350 352 352 353 355 354 354 354 355 355 355 356 356 356 356 356 357 358 359 359 359 359 359 359
323 322 322 322 320 321 321 321 320 321 321 321 322 322 323 323 322 321 322 321 320 322 323 324 325 327 328 329 330 330 329 329 328 329 330 330 332 333 333 334 334 336 337 336 335 335 337 338 338 339 343 348 351 354 355 355 354 353 353 354 356 356 356 357 357 356 357 358 359 359 359 359 358 358
322 321 321 321 320 320 321 320 320 320 320 321 321 321 321 321 320 320 320 318 318 320 321 321 322 324 325 326 326 326 324 324 325 326 327 327 328 329 330 330 332 333 333 333 334 334 334 335 335 336 339 343 345 348 350 352 353 353 353 353 354 353 353 355 357 357 357 358 358 358 359 358 358 357
321 320 321 320 320 320 320 319 320 319 320 320 320 320 320 320 320 319 318 317 318 319 319 319 320 321 322 322 323 323 322 322 323 323 324 324 325 325 326 327 328 328 329 330 331 331 332 333 335 337 338 339 341 342 343 347 350 350 350 351 351 350 351 353 355 355 356 357 358 358 358 357 357 357
320 320 320 320 319 319 319 319 318 318 318 319 319 319 319 319 319 319 318 317 318 318 317 318 319 319 319 319 320 321 321 321 321 321 321 322 322 323 323 324 324 325 326 327 327 327 330 332 334 335 337 338 339 339 340 342 343 342 344 347 350 349 349 350 351 352 352 354 356 357 356 355 356 357
318 318 318 318 318 318 318 318 317 317 317 318 318 318 318 318 318 317 317 317 317 316 316 317 318 317 317 317 318 319 319 319 320 319 320 320 320 321 321 321 322 322 323 323 324 326 328 330 331 333 335 337 336 334 335 336 337 336 337 341 343 344 344 345 347 348 350 351 353 355 355 354 355 356
316 316 316 317 316 316 316 316 316 316 316 316 317 316 316 316 316 316 316 316 315 315 315 316 316 316 316 316 316 316 317 318 318 318 318 318 318 318 319 319 319 320 320 321 323 325 326 328 329 331 332 331 330 329 330 332 333 333 334 336 339 342 344 345 347 349 349 350 350 351 352 353 353 354
315 314 315 315 315 315 315 315 315 315 314 315 315 315 315 315 315 315 315 314 313 313 314 314 315 315 315 315 315 315 315 316 316 316 316 316 316 316 316 316 317 318 320 321 322 323 324 325 327 327 326 325 325 326 328 330 332 334 335 336 337 339 341 343 345 346 347 347 348 349 349 350 351 352
313 313 313 313 313 313 313 313 313 313 313 313 313 313 313 313 313 313 312 312 312 313 313 314 314 314 314 314 314 314 314 314 315 315 315 315 315 314 314 315 316 318 319 320 320 321 322 322 323 322 322 323 324 326 328 330 331 333 334 334 334 334 336 337 340 342 343 345 346 347 348 348 349 349
312 312 312 312 312 311 311 312 311 311 312 312 312 311 311 312 312 311 311 311 312 313 313 313 313 312 312 312 313 312 313 313 313 313 313 313 313 313 314 315 316 317 317 317 318 319 319 319 320 320 321 323 324 325 327 328 329 330 331 332 332 333 334 334 335 336 338 340 341 343 343 344 345 346
310 310 310 310 310 310 310 310 310 310 310 310 310 310 310 311 311 311 311 311 311 311 311 311 311 310 310 310 311 311 311 311 311 311 311 311 311 312 313 313 314 314 315 315 316 317 317 317 318 319 320 321 323 324 325 326 326 327 328 329 330 331 331 332 332 333 334 335 337 338 341 342 343 344
309 309 309 309 308 308 308 309 309 309 309 309 309 309 309 309 310 310 309 310 310 310 310 309 309 309 308 309 309 309 309 309 308 308 309 309 310 310 311 312 312 313 314 314 315 316 316 316 317 318 319 320 321 322 323 324 324 325 326 326 327 328 329 330 332 333 334 334 334 335 337 339 341 342
307 307 307 307 307 307 307 307 307 307 307 307 308 308 308 308 308 308 308 309 308 308 308 308 307 307 307 306 306 307 307 306 306 307 308 308 309 309 309 310 311 312 313 313 314 315 315 316 316 317 318 319 319 320 321 322 322 323 324 324 326 327 328 329 330 331 331 331 331 332 333 334 336 337
Wind_Speed
4 4 4 4 5 5 4 5 5 3 4 5 4 4 4 4 4 4 3 4 7 8 9 7 4 5 8 10 9 9 8 10 12 11 10 11 11 14 17 17 16 17 18 17 17 16 14 13 13 14 15 15 16 16 15 15 15 16 17 18 18 19 18 18 17 16 16 16 16 17 18 18 18 18
5 4 4 4 4 5 5 6 6 5 4 5 6 5 5 5 5 6 5 5 7 9 9 10 9 9 10 10 9 9 8 10 12 11 11 12 12 16 18 16 16 17 18 17 17 16 15 14 15 15 15 16 16 16 16 16 16 16 17 17 18 18 18 18 17 16 15 15 15 16 17 17 17 17
5 5 5 5 5 5 5 6 6 6 6 6 7 6 6 6 6 7 7 6 7 9 10 11 10 11 10 10 10 10 9 10 12 11 11 12 14 17 17 15 15 17 18 17 16 16 16 16 16 16 16 17 16 16 15 14 15 16 17 17 17 17 18 18 17 16 15 14 14 15 15 16 16 16
5 5 5 5 5 5 5 6 6 6 7 7 7 7 7 7 7 7 7 8 8 10 11 12 11 11 11 10 10 10 10 11 12 12 12 13 15 16 15 14 15 15 16 17 16 16 16 16 16 16 16 16 16 15 14 14 14 15 16 16 17 16 17 18 16 15 14 14 14 14 14 15 15 16
5 5 6 6 6 6 6 6 7 7 7 7 7 7 7 7 7 6 7 9 10 10 10 11 11 11 11 10 10 11 12 12 12 13 13 14 14 14 13 14 14 13 14 16 15 15 16 15 15 15 15 15 16 16 16 16 16 16 16 17 17 16 16 16 15 15 14 14 14 13 13 13 14 15
6 6 6 6 6 6 6 6 7 7 7 7 7 7 7 7 7 7 8 9 10 11 11 11 12 11 10 10 10 11 12 12 12 12 13 12 13 12 12 13 12 11 12 15 14 14 14 14 13 14 15 16 17 17 17 18 17 17 17 17 17 16 15 14 14 14 13 13 13 13 12 12 13 14
6 6 6 6 6 6 6 6 6 7 7 7 7 7 8 8 8 8 8 8 10 11 11 11 12 11 10 10 11 10 10 11 11 12 12 12 12 12 12 13 12 11 14 16 15 14 14 13 12 13 14 15 16 16 16 15 15 15 15 15 16 16 15 14 13 13 13 12 12 12 12 11 11 12
6 6 6 6 6 5 5 6 6 6 6 6 6 7 7 8 8 8 8 9 10 11 12 12 11 11 11 10 10 10 10 10 11 12 12 12 13 12 12 13 12 13 15 16 15 16 16 15 15 15 15 14 14 14 13 13 13 13 13 14 15 16 15 14 13 13 12 12 12 12 11 11 11 11
7 7 7 6 6 6 6 6 6 5 5 5 6 6 6 6 7 7 8 9 9 11 12 12 11 11 11 10 9 9 10 11 11 12 12 12 12 12 12 13 13 14 15 14 15 16 16 16 18 18 18 17 15 13 13 13 13 13 13 14 14 15 15 14 13 13 13 12 12 11 11 11 10 10
8 8 7 7 6 6 7 6 6 5 5 6 6 6 6 7 7 7 8 8 9 10 11 12 12 11 10 10 9 9 9 11 12 12 12 12 11 11 12 13 13 14 15 14 15 15 15 16 18 19 20 20 19 16 15 14 13 12 12 13 14 15 15 14 14 13 13 13 12 12 11 11 11 10
8 8 8 8 7 7 7 6 6 6 6 6 6 6 6 7 8 9 9 9 9 10 11 12 11 11 10 10 11 10 9 10 11 11 12 13 12 12 12 13 14 15 15 16 16 15 16 18 18 19 20 21 21 20 18 16 13 12 13 13 14 15 15 15 15 14 14 13 13 12 12 12 11 10
8 8 9 9 8 8 7 6 6 6 6 6 6 6 7 7 8 9 9 9 10 10 11 12 11 11 11 11 11 10 9 10 11 12 13 14 14 14 14 14 15 16 16 16 16 16 17 19 19 19 20 21 21 20 19 16 12 13 15 15 14 15 15 16 16 15 14 14 13 13 13 13 12 11
8 8 9 9 8 7 8 8 9 8 8 8 8 8 7 8 9 9 9 10 10 10 11 12 12 12 12 11 11 11 10 12 13 13 13 14 15 16 17 16 15 15 16 17 18 17 18 20 21 20 19 19 18 18 18 13 10 13 18 16 15 16 16 16 16 16 16 15 14 14 14 14 13 12
9 9 9 9 8 9 11 11 10 9 9 9 9 10 9 9 10 10 11 11 11 11 12 12 12 13 13 12 12 12 13 14 14 14 14 15 16 17 17 17 15 14 15 18 20 21 20 21 22 21 19 19 18 17 16 13 13 17 19 17 15 16 16 15 16 16 16 15 15 14 14 15 14 14
9 10 9 9 9 10 11 9 7 8 10 9 9 10 10 11 11 11 12 12 11 12 12 13 13 13 14 13 13 15 16 15 14 14 14 15 16 16 16 16 16 15 15 17 21 23 22 21 21 21 21 20 19 17 16 17 20 21 19 17 16 16 15 15 15 14 14 15 15 15 15 15 16 15
9 9 9 9 9 9 9 9 8 9 10 10 10 10 11 11 12 12 13 13 12 12 13 14 14 14 14 14 14 15 16 15 15 15 15 15 16 16 16 17 18 18 17 19 22 24 23 21 21 22 21 20 20 19 18 20 22 21 19 18 17 15 14 14 13 13 12 12 13 14 14 15 16 16
9 8 8 9 9 8 8 8 8 8 9 10 10 11 12 13 13 13 13 13 14 14 14 14 15 15 15 15 15 15 15 16 17 17 17 17 17 18 18 19 21 22 20 20 22 24 22 20 20 21 21 20 20 20 19 20 21 22 21 20 17 15 13 12 11 10 9 9 10 11 12 13 14 15
9 8 8 8 8 8 7 6 7 6 7 8 9 10 12 13 13 14 15 15 15 15 15 15 16 16 15 16 16 15 14 14 15 15 17 18 18 19 20 21 23 24 22 20 21 22 21 19 20 21 21 21 21 20 19 20 21 23 23 21 17 15 12 10 9 8 8 8 9 10 10 11 11 12
7 7 8 8 8 7 6 7 9 8 7 8 9 10 12 13 13 15 16 16 15 15 15 15 16 16 15 15 16 15 14 15 17 18 19 20 19 20 21 22 22 22 20 18 18 20 21 19 19 21 21 21 21 20 19 20 21 22 23 21 17 14 13 12 11 11 11 10 10 10 11 11 11 11
6 5 5 6 7 5 6 9 11 10 9 9 9 10 12 13 14 15 15 16 17 17 16 16 17 17 18 18 18 19 19 20 21 20 19 19 19 20 20 21 21 20 18 16 16 20 22 20 19 21 21 21 21 21 19 19 19 20 20 19 17 16 16 15 15 14 14 14 13 13 13 12 12 12
4 4 4 4 4 3 5 8 10 9 8 7 8 9 11 12 14 15 15 16 17 15 15 16 18 19 20 21 21 21 22 21 20 18 17 17 18 19 19 19 19 19 18 16 16 19 22 20 19 21 21 21 21 21 20 18 17 17 18 19 19 18 18 18 17 16 16 16 15 15 15 15 14 14
3 3 4 3 3 4 6 7 9 9 8 8 8 10 11 12 13 14 14 14 14 13 14 16 18 19 20 20 21 22 22 21 19 17 18 17 18 20 19 18 18 19 20 18 14 14 19 20 19 20 21 21 20 19 17 16 16 17 18 19 20 20 20 20 20 18 17 17 16 16 16 16 16 16
1 2 2 3 3 5 7 9 9 9 9 9 10 10 11 12 12 13 13 13 13 14 15 16 17 19 19 20 20 21 21 21 19 19 18 17 17 18 18 17 17 16 16 14 9 10 15 18 18 19 19 17 17 17 16 16 17 19 19 19 20 21 20 21 21 21 19 18 17 17 16 17 17 17
1 0 1 4 6 7 8 9 10 10 10 11 11 10 10 11 11 13 13 14 15 16 16 17 18 20 20 20 19 19 18 18 18 18 18 16 16 17 16 16 17 17 17 15 12 11 14 16 18 21 18 13 15 19 18 17 19 20 20 20 20 19 18 19 20 20 20 20 19 18 18 18 18 18
2 2 3 6 9 9 9 9 10 10 11 11 10 9 10 11 13 14 15 15 16 16 16 17 18 19 19 18 17 17 16 16 17 17 16 16 17 19 18 16 16 19 21 21 17 16 17 17 19 21 18 14 16 20 20 19 19 19 20 20 20 19 18 18 18 18 20 21 21 21 21 20 18 18
4 3 4 7 9 9 9 8 8 7 8 8 8 8 11 13 13 14 14 14 14 15 16 16 16 18 17 17 18 18 17 18 19 18 18 19 20 21 20 18 17 19 22 24 22 20 20 19 19 19 18 17 18 19 20 20 19 18 19 19 19 19 18 18 18 18 18 18 20 22 23 22 21 20
5 4 5 7 9 9 9 7 7 7 6 5 6 8 9 10 10 11 11 11 11 13 14 14 15 15 15 16 19 19 17 18 19 19 20 21 22 21 21 20 20 21 23 25 24 21 20 20 19 18 19 20 20 18 18 19 19 19 20 20 20 20 19 18 18 19 19 18 18 21 23 25 26 24
6 7 7 8 9 9 8 7 7 8 7 5 6 7 7 7 8 8 8 9 10 11 12 13 13 14 16 17 18 19 20 20 20 20 20 20 21 21 21 21 21 22 22 23 21 20 20 21 20 19 19 19 20 19 18 18 19 19 20 20 20 20 19 19 19 20 20 19 19 19 20 22 24 24
9 9 9 9 9 8 8 7 6 7 7 7 7 7 6 7 8 8 8 9 9 10 11 12 12 13 15 17 18 19 20 20 20 19 19 19 20 21 21 21 21 20 20 20 20 19 21 21 21 21 19 18 19 20 20 21 21 20 19 19 20 20 19 19 20 21 21 20 19 19 19 20 20 21
10 10 10 9 9 8 7 7 6 6 7 8 8 8 8 7 7 8 8 9 9 10 11 11 12 13 15 17 18 17 17 18 18 18 19 20 20 21 21 22 22 20 19 18 18 18 19 19 19 20 20 19 20 22 22 22 22 21 20 19 20 20 18 18 19 20 20 21 21 21 21 21 20 20
8 8 9 8 8 7 7 6 5 6 7 8 8 9 8 7 7 8 9 9 8 9 10 10 12 13 14 14 15 14 15 16 16 17 19 20 20 21 22 22 22 21 21 20 18 17 18 19 19 20 20 19 21 23 22 21 22 22 21 20 20 20 19 19 20 20 20 21 22 22 22 21 21 21
6 6 7 6 6 6 5 5 5 5 7 8 8 9 8 7 7 8 9 8 8 8 9 10 11 12 12 12 13 14 13 13 14 16 18 19 19 20 20 19 20 21 22 23 24 23 22 21 21 22 21 21 24 26 25 23 22 22 22 21 20 20 21 20 20 20 19 20 21 22 21 20 21 21
5 5 5 5 6 6 6 6 7 7 8 8 7 8 8 7 8 9 8 8 9 9 9 10 10 11 11 11 12 12 12 13 14 15 16 17 17 17 17 16 17 18 19 22 25 25 24 23 24 25 24 24 25 25 23 22 22 22 21 21 20 20 20 20 19 19 19 19 21 22 22 20 20 21
5 5 5 6 7 7 7 8 8 8 9 9 8 8 8 8 8 9 8 9 10 10 10 10 10 11 11 11 11 11 12 13 14 14 14 15 15 15 15 16 16 16 16 19 21 21 21 22 24 25 24 23 23 21 20 20 22 23 22 20 19 20 19 18 18 19 19 18 20 21 22 22 20 20
5 6 6 6 7 7 7 7 8 8 8 8 9 9 8 8 9 9 9 10 11 10 10 10 10 10 11 11 11 12 12 13 14 14 13 13 13 13 14 15 16 17 17 18 18 19 20 21 22 21 21 20 20 18 17 16 18 21 22 20 20 22 22 20 19 19 18 18 19 20 22 22 21 20
6 6 6 7 7 7 7 7 8 8 8 8 8 8 8 8 8 9 10 11 11 10 10 11 11 10 11 12 12 12 12 13 13 13 13 13 13 13 14 14 15 16 17 17 18 19 19 19 18 18 18 17 14 13 15 15 15 17 21 22 22 24 24 23 22 21 21 20 19 19 21 23 22 21
6 7 6 7 7 7 7 7 8 8 8 8 8 7 8 8 8 9 10 10 9 9 10 11 10 10 11 12 13 13 12 12 13 13 13 13 13 13 14 15 15 16 16 17 18 18 18 17 17 16 16 13 9 9 14 18 19 19 20 21 23 24 24 25 25 25 25 24 22 21 22 25 25 23
6 7 7 7 7 7 7 7 8 8 8 8 8 8 8 8 8 9 9 9 9 10 11 10 10 11 11 12 13 13 13 13 13 13 13 13 13 14 15 15 16 17 17 18 18 17 16 16 16 15 14 11 8 9 13 18 22 23 22 22 24 27 26 25 24 25 25 25 24 23 23 25 26 26
6 7 7 7 7 7 8 8 8 8 9 9 9 9 9 9 9 9 9 9 10 11 11 11 11 11 12 12 12 13 13 14 14 13 13 14 14 15 15 16 17 18 18 19 18 16 15 15 14 14 14 14 14 15 18 22 25 29 29 26 26 26 25 23 23 24 24 25 25 25 26 27 27 28
6 7 7 7 7 8 8 8 9 9 9 9 9 9 10 10 10 10 10 10 11 11 11 11 11 12 12 12 12 13 13 13 14 14 15 15 16 16 16 17 18 18 18 18 18 17 16 14 14 16 18 20 22 23 24 25 27 29 29 25 22 22 22 23 24 25 25 24 24 25 26 27 27 26
7 7 7 7 8 8 8 9 9 9 10 10 10 10 10 10 10 10 11 12 12 11 11 11 11 12 12 12 12 13 13 14 14 15 15 16 17 17 18 18 18 17 17 18 19 19 18 17 19 21 23 23 23 22 21 19 20 22 24 22 21 22 23 24 25 26 26 26 25 24 24 25 25 25
7 7 7 8 8 8 9 9 10 10 10 10 10 11 11 11 11 11 11 11 11 11 11 11 11 12 12 12 13 13 14 15 15 15 16 17 18 18 18 17 17 17 17 19 20 21 21 21 22 22 21 20 19 18 17 17 18 21 23 25 25 23 23 23 25 26 28 29 29 26 25 23 21 19
7 7 8 8 8 9 10 10 10 10 11 11 11 11 11 11 11 11 11 11 11 12 12 12 12 13 13 13 13 14 14 15 16 17 17 18 18 18 18 18 18 18 19 20 21 22 23 22 21 20 20 19 18 17 18 20 21 23 24 25 25 25 25 27 28 27 28 30 30 30 29 27 22 19
8 8 9 9 10 10 10 11 11 11 12 12 12 11 11 12 12 12 12 13 13 13 13 13 14 14 14 14 15 15 15 16 16 18 18 18 18 18 19 19 20 20 20 20 21 22 22 22 21 21 20 20 19 19 20 22 23 23 24 25 26 27 28 27 26 25 25 26 27 28 30 31 30 30
9 9 10 10 11 11 11 11 12 12 12 13 13 13 13 13 13 13 13 14 14 15 15 15 15 15 15 16 16 16 17 17 17 17 18 18 18 19 19 20 20 21 20 20 21 22 23 23 22 21 20 20 20 20 21 22 23 24 25 26 26 26 25 25 25 25 26 27 27 27 28 30 32 34
Wind_Direction
265 270 268 273 279 280 282 280 286 301 311 313 316 317 321 319 312 309 313 307 300 306 312 307 312 332 325 319 309 308 306 296 306 318 312 311 310 302 311 320 321 327 327 321 319 318 315 314 314 317 323 324 322 317 313 312 312 314 318 323 328 333 335 334 332 329 328 327 330 333 336 341 348 354
254 260 264 269 274 277 277 273 274 276 280 290 294 294 298 299 302 307 309 304 301 303 305 306 315 324 323 320 314 314 310 302 309 316 311 308 303 304 314 319 319 325 326 321 318 316 312 310 310 313 318 322 321 319 315 313 312 312 316 320 325 330 334 334 331 327 325 325 326 329 331 335 342 349
250 249 255 263 269 275 282 282 277 274 272 277 282 283 287 289 293 301 301 297 301 305 305 307 312 313 315 317 315 317 315 310 315 317 310 307 306 310 316 318 316 321 324 323 320 317 314 310 309 310 313 315 316 318 318 315 315 316 318 321 324 328 332 333 330 325 323 323 324 325 327 330 335 343
252 250 253 256 259 264 271 275 276 272 266 269 274 278 281 283 284 289 293 293 298 302 305 307 310 311 313 314 313 313 311 310 314 314 309 308 309 310 311 313 312 313 321 326 322 319 317 313 312 311 309 311 313 316 317 316 317 317 318 320 323 325 328 330 328 323 321 321 322 322 323 326 330 336
248 249 253 255 257 259 260 265 270 271 266 262 264 268 272 277 283 286 289 293 297 303 308 309 309 313 314 311 311 312 310 310 312 312 310 308 307 307 308 312 308 303 317 329 326 323 322 319 318 314 310 310 312 314 315 314 313 313 313 313 315 317 320 323 323 320 318 318 319 319 319 322 326 330
240 240 246 251 252 251 251 258 265 270 273 273 272 271 274 280 285 288 290 292 295 300 308 310 309 310 311 310 312 312 310 312 313 312 312 311 310 310 311 313 306 299 315 329 329 329 329 326 325 321 317 316 315 315 314 312 311 311 311 310 309 309 311 313 316 315 315 315 316 317 316 317 322 326
235 235 238 244 247 245 243 251 262 270 273 276 279 278 278 281 282 285 286 285 289 296 303 307 308 311 312 309 310 309 308 310 311 311 312 312 312 313 312 311 306 302 312 323 330 332 332 332 333 333 331 327 323 320 318 317 316 316 316 314 312 310 308 307 309 310 311 311 312 314 315 314 318 323
234 236 238 240 240 240 240 245 253 260 263 266 272 271 270 272 275 280 279 276 281 289 295 299 303 307 308 304 306 310 309 308 309 309 310 309 310 311 310 309 308 307 310 318 327 329 329 332 333 334 338 338 333 329 327 328 327 326 325 322 319 316 312 307 305 306 306 308 309 311 313 312 313 320
238 240 241 239 237 236 239 244 247 249 254 261 266 268 271 274 277 279 279 278 280 282 288 295 298 299 299 298 303 309 309 309 310 309 307 308 310 312 311 311 313 313 314 321 325 324 325 326 324 325 331 336 335 332 331 333 333 333 331 327 324 320 315 310 304 302 302 303 307 308 311 311 310 315
237 238 238 239 240 239 241 247 251 251 254 259 263 267 273 277 279 279 278 277 278 280 284 289 291 293 295 297 301 304 306 307 309 310 311 311 313 316 317 316 316 317 317 318 318 316 317 320 319 318 322 327 330 330 328 329 332 335 336 333 329 322 317 311 304 299 298 298 302 304 306 309 309 310
237 235 236 236 236 239 244 248 251 252 254 257 260 264 268 272 276 279 280 280 280 281 283 285 287 291 295 297 299 300 298 296 300 307 312 313 314 317 318 315 314 315 313 311 311 311 313 316 316 314 316 321 323 324 326 326 328 333 336 334 331 324 318 313 305 298 294 293 295 298 300 303 305 307
237 236 235 235 234 234 235 242 252 256 259 262 264 267 271 275 277 280 284 285 284 283 284 285 288 292 293 294 296 299 300 298 302 309 311 309 309 311 312 310 309 310 309 309 312 314 314 314 314 313 312 313 314 315 320 322 321 325 326 324 324 322 318 314 308 299 292 288 288 291 293 296 299 301
240 239 239 238 236 229 231 247 260 262 259 263 267 270 273 276 278 282 284 285 284 284 285 286 288 290 290 291 295 301 304 303 304 309 309 307 308 311 310 307 306 306 306 308 311 314 314 311 309 308 305 304 302 302 307 308 304 312 316 315 314 315 315 314 310 302 293 286 283 285 287 290 292 294
244 243 244 243 240 243 254 264 268 267 262 262 264 267 269 272 277 280 281 280 282 283 285 287 288 289 290 294 301 303 302 302 305 309 310 308 309 312 309 307 307 306 304 304 306 309 311 309 305 303 301 300 298 297 295 286 281 297 307 309 309 309 308 309 309 305 297 288 282 281 282 284 286 289
247 247 248 246 242 246 257 265 271 275 274 271 268 268 268 269 270 272 274 276 278 281 282 284 286 289 292 296 301 300 300 305 308 309 307 304 304 305 304 303 306 306 304 302 300 302 307 306 300 297 299 299 297 296 290 282 284 295 304 307 306 304 301 302 304 304 298 291 285 281 280 281 283 284
250 252 253 255 253 248 249 255 262 269 273 273 271 270 270 268 266 264 264 266 269 273 278 282 283 286 291 294 296 298 303 307 306 302 299 297 296 296 296 297 299 301 304 300 296 298 302 302 296 294 296 298 298 297 292 286 288 294 303 307 304 298 295 295 297 299 296 290 287 283 280 281 282 284
250 256 258 261 264 262 260 261 259 255 259 267 273 274 273 271 270 268 267 264 263 264 266 271 275 278 283 287 289 293 299 299 297 295 295 294 293 292 292 292 293 296 299 297 294 296 298 299 297 296 297 300 300 298 293 289 288 292 301 307 303 294 290 289 289 291 289 286 285 283 282 282 282 283
251 254 259 262 266 268 267 262 256 254 260 268 272 271 270 270 271 272 273 272 272 269 264 262 266 271 275 280 286 291 293 292 293 294 295 295 295 292 289 286 287 289 290 289 289 291 294 298 300 299 300 302 301 297 294 292 290 292 298 303 301 293 286 282 280 279 277 277 278 276 277 279 280 281
253 258 264 266 269 271 266 253 251 260 273 274 272 271 269 269 269 268 268 269 269 269 266 262 264 269 272 275 279 282 281 280 281 283 287 290 291 288 287 285 285 287 287 284 282 285 292 299 300 299 302 305 301 298 296 294 293 294 296 300 302 297 291 287 282 279 279 278 277 274 272 273 275 278
252 260 267 274 280 278 262 256 261 270 278 276 274 273 272 273 272 270 268 268 269 271 271 267 265 269 273 274 275 277 279 280 281 281 282 282 282 282 283 286 288 290 291 290 288 289 293 299 300 299 304 306 301 298 297 294 294 295 294 295 300 303 301 297 289 284 282 280 278 276 275 275 277 277
252 254 264 288 306 282 247 255 271 282 285 280 274 274 277 280 278 276 275 272 272 278 282 283 283 286 288 289 289 290 289 288 286 279 273 275 279 280 281 284 288 292 294 297 297 295 296 300 301 300 303 303 299 298 298 297 298 299 297 298 303 305 305 303 297 289 283 279 276 274 274 275 276 276
252 251 254 264 273 261 257 268 279 284 285 284 282 281 282 283 284 288 293 290 286 287 289 293 298 301 301 301 301 299 296 293 286 271 264 271 279 279 279 283 288 290 290 291 293 294 295 299 301 303 305 303 298 298 302 304 305 305 304 304 305 304 304 304 302 295 288 283 278 273 270 270 270 271
253 242 270 293 289 281 285 290 290 291 291 289 290 288 285 284 286 293 302 306 304 300 296 296 298 298 298 298 296 294 294 293 288 275 266 270 276 276 280 287 291 292 290 289 291 292 293 296 300 304 307 305 302 304 307 306 305 304 302 301 302 301 300 301 301 299 296 291 284 278 272 267 265 266
254 177 359 342 325 308 302 301 299 296 291 289 291 292 291 290 287 286 293 297 297 297 295 293 293 293 294 293 289 287 287 287 285 278 269 265 270 274 275 278 282 286 288 292 301 301 293 292 296 299 300 298 300 304 306 306 306 304 302 299 298 297 297 297 298 301 301 297 291 287 281 274 268 264
338 16 11 345 331 322 318 317 312 305 300 298 297 293 290 288 285 286 293 295 293 295 296 295 298 300 298 296 294 293 294 295 293 288 281 279 282 283 282 283 285 285 286 290 301 306 300 293 292 295 295 290 292 299 304 306 305 303 302 299 296 295 295 293 291 294 297 296 293 292 289 283 277 268
2 357 353 343 342 348 352 345 335 329 326 321 313 301 296 298 299 302 304 300 296 300 302 302 307 306 301 302 304 304 307 310 309 304 300 300 298 293 292 295 295 291 288 290 294 298 296 291 289 291 292 290 291 296 300 301 302 304 304 302 298 297 295 291 289 289 290 291 292 294 294 290 285 280
18 8 3 354 356 7 12 6 356 356 2 357 335 320 316 323 328 327 322 315 313 316 315 314 316 316 316 319 318 317 320 321 320 317 312 307 304 299 296 295 293 292 292 292 292 292 289 286 285 285 285 288 292 293 292 295 299 302 303 302 300 300 297 294 293 292 289 286 285 287 288 286 286 285
28 17 9 0 0 4 5 6 3 356 358 360 344 336 343 356 356 350 343 340 341 342 338 333 333 336 339 340 336 332 330 326 321 318 314 311 309 307 305 303 302 300 297 294 292 290 286 284 284 284 283 284 288 289 290 292 294 296 298 299 299 298 298 297 295 293 291 289 286 283 281 281 283 284
32 21 12 6 4 1 358 6 7 350 342 344 342 346 0 8 3 360 359 358 355 351 347 343 342 342 341 339 336 334 332 328 325 324 322 321 320 317 314 310 306 302 299 295 293 291 290 288 287 286 285 284 285 286 288 291 291 292 294 294 294 293 293 293 292 292 292 292 288 285 281 279 281 282
22 13 9 9 10 9 8 16 15 356 351 355 354 358 6 7 3 1 360 358 354 346 341 337 334 333 331 331 331 332 332 331 332 335 334 331 328 327 326 320 313 307 302 297 293 292 293 292 291 288 286 287 288 289 290 291 292 292 291 290 291 292 291 290 289 291 291 290 287 283 280 279 279 278
10 4 5 7 9 13 16 19 17 9 9 12 9 7 8 7 5 359 353 351 347 338 333 329 325 325 326 327 329 332 332 330 330 335 335 330 327 328 329 326 321 317 315 311 307 305 302 297 293 290 289 292 294 293 293 293 292 291 292 291 291 291 292 291 290 288 287 286 285 283 281 279 277 274
2 359 6 9 7 7 6 6 10 12 14 15 14 12 9 8 8 3 358 357 354 343 335 330 326 325 325 323 323 325 326 325 325 327 328 325 322 323 324 322 319 319 320 321 322 325 325 318 309 301 298 297 297 296 295 294 291 289 291 293 292 290 291 293 291 290 290 288 285 283 282 280 278 275
5 355 8 16 13 11 11 9 8 8 9 10 12 13 10 7 7 7 6 3 357 349 342 337 332 329 326 323 323 324 324 324 324 324 325 323 320 319 318 315 314 316 317 318 319 323 327 326 321 314 307 301 296 293 291 291 291 291 292 292 293 292 293 295 295 293 294 291 288 287 286 282 279 278
15 6 14 20 18 15 15 14 9 5 4 3 1 2 5 5 5 6 6 2 355 349 345 341 336 333 331 329 331 333 330 327 325 325 324 323 321 320 318 315 315 318 318 317 318 321 322 321 319 316 311 304 296 288 282 281 286 293 295 295 295 295 296 298 299 299 298 295 292 291 290 286 282 281
14 12 17 19 18 14 14 15 9 2 2 1 356 354 355 359 1 2 0 357 351 346 344 342 338 336 335 334 334 333 329 326 325 326 327 325 323 322 320 317 317 320 320 318 319 323 325 323 320 317 313 309 303 297 294 290 289 294 298 299 299 300 301 301 302 301 298 295 292 290 288 288 286 284
15 16 17 16 14 10 8 10 6 0 359 357 353 350 349 350 355 357 355 350 346 344 343 340 337 336 336 334 331 328 326 325 324 325 326 326 324 322 319 317 317 318 317 317 319 322 322 321 320 318 314 312 310 307 309 312 311 309 308 305 303 304 305 306 305 301 295 292 289 286 285 287 287 288
17 16 12 11 10 6 4 3 359 357 357 353 349 348 347 345 347 349 346 343 342 343 340 335 333 335 335 333 329 326 324 323 322 322 323 323 323 322 320 318 317 315 314 314 316 318 317 317 318 317 313 312 311 304 306 310 310 309 308 305 303 303 305 305 303 300 296 292 287 282 282 284 285 287
17 11 5 6 4 360 358 356 354 352 352 349 346 344 343 342 343 343 341 341 342 340 335 332 333 334 333 331 328 325 323 322 320 319 321 322 324 324 321 319 318 316 314 312 312 313 314 314 315 316 317 317 315 309 310 311 307 303 301 299 295 294 296 296 294 293 294 294 292 287 285 284 284 285
9 2 360 360 357 354 352 350 348 347 345 344 344 342 341 340 339 338 338 339 339 336 331 329 330 330 328 327 326 323 321 321 320 319 320 322 323 322 320 318 317 314 311 309 309 312 314 313 315 322 326 319 308 303 304 303 298 296 297 296 291 285 284 287 291 293 295 296 298 298 295 291 288 288
1 354 353 351 348 347 346 343 342 341 340 338 337 336 335 334 333 333 335 335 332 328 325 323 324 325 324 323 323 320 318 318 317 316 316 318 318 317 317 315 312 310 307 307 308 310 312 312 316 319 316 306 298 295 292 289 286 287 291 295 295 289 286 287 289 291 293 295 297 297 296 296 295 295
348 343 344 342 339 338 337 336 336 335 334 332 331 331 331 329 327 327 327 325 322 319 318 318 320 322 322 321 321 319 316 315 314 313 314 314 313 313 313 310 307 307 307 308 307 307 307 309 311 311 306 300 297 295 291 285 285 289 292 295 297 295 291 287 284 283 286 290 292 292 291 292 293 293
337 333 332 331 331 329 328 328 328 328 327 327 327 327 325 321 319 320 319 318 316 316 316 317 318 319 319 319 319 318 315 314 313 313 314 313 311 311 311 309 307 308 308 305 303 303 304 306 308 307 305 302 300 297 292 289 291 295 296 297 298 297 294 291 288 284 281 280 280 281 283 287 289 289
327 326 323 323 324 322 320 320 320 320 320 320 320 320 317 315 315 317 316 314 315 315 315 316 318 318 316 316 316 315 313 312 312 312 312 311 309 308 307 306 305 305 303 301 301 302 303 306 307 306 304 301 297 293 291 292 294 295 296 298 299 300 299 297 293 288 283 278 275 273 272 273 274 275
321 320 320 320 319 316 315 316 316 315 315 315 314 314 313 312 312 312 310 309 310 312 313 314 315 314 313 314 314 313 311 310 310 308 307 306 305 304 303 304 303 302 301 301 302 303 303 305 306 304 301 298 296 294 292 293 294 294 295 297 298 298 299 299 298 296 293 288 284 280 276 272 269 269
313 314 315 315 314 312 313 313 312 312 311 311 311 311 310 310 308 307 306 306 306 307 309 311 311 311 312 313 312 309 308 307 306 304 303 303 303 302 301 301 301 300 300 301 301 302 303 304 303 301 299 297 296 295 292 292 292 293 294 295 295 296 298 301 302 301 296 292 289 287 283 279 276 275